www.pogodaiklimat.ru

Погода и климат >> Архив погоды >> Аргентина >> Neuquen


ПОГОДА в Neuquen

  • Прогноз погоды в Neuquen
  • Монитор погоды в Neuquen
  • Климат города

АРХИВ ПОГОДЫ в Neuquen

Время (UTC), дата Ветер
(напр.,м/с)
 
Видим.   Явления Облачность Т
(С)
Тd
(С)
f
(%)
Тe
(С)
Тes
(С)
Комфортность P
(гПа)
Po
(гПа)
Тmin
(С)
Tmax
(С)
R
(мм)
R24
(мм)
S
(см)
03 13.07 З 3 15 км 10/3 1500 м
[Sc Ac As]
+13.5 +5.8 60 +13 +13 1014.8 982.2
06 13.07 СЗ 1 15 км 10/1 1500 м
[Sc Ac As]
+11.4 +5.4 67 +11 +11 1014.2 982.1
09 13.07 штиль 0 15 км 10/3 1500 м
[Sc Ac As]
+10.8 +5.6 70 +10 +10 1013.0 980.8
12 13.07 СЗ 1 10 км 9/1 1500 м
[Sc Ac As Cs]
+8.7 +6.1 84 +8 +8 1013.6 981.2 +8.0 +14.5
15 13.07 СЗ 2 8000 м дым 6/3 1350 м
[Sc Ac As Cs]
+12.2 +7.3 72 +11 +14 1013.5 981.3
18 13.07 СВ 2 10 км 9/4 1350 м
[Sc Ac As Cs]
+16.9 +6.7 51 +17 +19 1010.1 978.2
21 13.07 В 2 10 км 9/0
[Ac As Cs]
+17.2 +6.3 49 +18 +18 1008.7 976.8
00 14.07 Ю 1 15 км 6/0
[Ac As Cs]
+11.8 +7.3 74 +12 +12 1008.2 975.8 +8.5 +17.8
03 14.07 штиль 0 10 км дымка 9/0
[Ac As Cs]
+9.2 +7.1 87 +8 +8 1006.1 973.8
06 14.07 З 7 15 км ясно +18.0 +3.6 38 +17 +17 1003.6 972.2
09 14.07 штиль 0 15 км ясно +10.0 +5.7 75 +9 +9 1004.0 972.2
12 14.07 З 5 15 км 1/0
[Ac As]
+13.0 +3.2 51 +11 +11 1006.6 974.6 +8.6 +18.3
15 14.07 З 9 15 км ясно +16.5 +0.7 34 +15 +16 1008.3 976.2
18 14.07 З 8 10 км ясно +17.2 -7.6 18 +16 +17 1007.5 976.0
21 14.07 З 5 10 км ясно +14.1 -2.3 32 +13 +13 1010.3 978.1
00 15.07 ЮЗ 5 15 км ясно +10.5 -2.5 40 +8 +8 1013.2 980.9 +10.5 +17.4
03 15.07 З 3 15 км ясно +8.4 -0.8 52 +6 +6 1015.4 983.0
06 15.07 З 3 15 км ясно +6.0 -0.8 62 +3 +3 1016.5 984.1
09 15.07 З 2 15 км ясно +4.2 -0.3 72 +2 +2 1018.0 985.3
12 15.07 штиль 0 15 км 4/0
[Ac As]
+0.7 -3.2 75 -0 -0 1020.6 987.4 0.0 +10.6
15 15.07 З 1 15 км 6/0
[Ac As]
+8.8 +0.7 57 +9 +11 1021.7 988.8
18 15.07 З 3 15 км 3/0
[Ac As]
+14.0 -1.0 36 +13 +16 1020.2 987.4
21 15.07 З 2 15 км 4/1 1500 м
[Sc Ac As]
+13.2 +1.1 44 +13 +13 1021.1 988.2
00 16.07 ЮВ 1 15 км 3/0
[Ac As]
+9.1 -0.5 51 +9 +9 1023.5 990.1 +0.5 +14.5
03 16.07 ЮВ 2 15 км ясно +7.1 0.0 61 +5 +5 1024.4 991.3
06 16.07 ЮВ 2 15 км 4/0
[Cs]
+5.2 +1.7 78 +3 +3 1024.6 991.7
09 16.07 ЮВ 3 15 км 6/0
[Ac As]
+5.0 +2.6 84 +1 +1 1024.0 991.0
12 16.07 В 4 15 км 9/5 450 м
[Sc Ac As]
+4.4 +2.9 90 0 0 1024.9 991.7 +4.0 +9.7
15 16.07 В 4 15 км 9/0
[Ac As Cs]
+6.8 +1.9 71 +3 +5 1025.0 991.8
18 16.07 В 5 15 км 9/0
[Ac As Cs]
+9.2 +3.7 68 +6 +8 1022.5 989.4
21 16.07 ЮВ 3 15 км 9/0
[Ac As Cs]
+8.1 +2.4 67 +6 +6 1022.6 989.4
00 17.07 В 3 15 км 9/0
[Ac As Cs]
+9.4 +3.5 67 +7 +7 1023.2 990.0 +4.4 +9.7
03 17.07 В 4 15 км 8/3 1500 м
[Sc Ac As]
+8.8 +3.3 68 +6 +6 1023.6 990.5
06 17.07 В 3 15 км 8/3 1500 м
[Sc Ac As]
+7.8 +4.1 77 +5 +5 1022.5 989.4
09 17.07 В 3 15 км 10/8 450 м
[Sc As op]
+6.8 +4.3 84 +4 +4 1021.5 988.5
12 17.07 В 4 15 км 10/5 450 м
[Sc As op]
+7.4 +4.7 83 +4 +4 1021.6 988.6 +6.0 +10.3
15 17.07 В 3 15 км 10/5 450 м
[Sc As op]
+7.6 +5.4 86 +5 +5 1022.2 989.2
18 17.07 ЮВ 2 15 км 10/6 450 м
[Sc As op]
+7.8 +5.1 83 +6 +7 1021.1 988.1
21 17.07 ЮВ 2 15 км 10/5 450 м
[Sc As op]
+7.8 +5.1 83 +6 +6 1021.9 988.8
00 18.07 В 2 2500 м морось 10/5 450 м
[Frnb As op]
+6.8 +6.4 97 +4 +4 1023.0 989.8 +6.6 +8.6 0.0
03 18.07 В 2 10 км в посл. час морось 10/4 600 м
[Frnb As op]
+6.2 +5.8 97 +4 +4 1023.7 990.5
09 18.07 ЮВ 2 8000 м слабая морось 10/6 500 м
[Frnb As op]
+5.0 +4.1 94 +2 +2 1023.0 989.8
12 18.07 ЮВ 2 7000 м слабая морось 10/10 450 м
[Frnb]
+4.7 +3.7 93 +2 +2 1023.6 990.2 +4.3 +7.0 1
15 18.07 В 5 4000 м дождь 10/10 240 м
[Frnb]
+4.3 +2.8 90 -1 -1 1025.2 991.8
18 18.07 В 2 4000 м дождь 10/10 270 м
[Frnb]
+4.5 +3.0 90 +2 +2 1023.9 990.5 9
21 18.07 З 3 3000 м дождь 10/10 270 м
[Frnb]
+2.7 +2.4 98 -2 -2 1023.8 990.2
00 19.07 ЮЗ 2 4000 м дождь 10/10 450 м
[Frnb]
+4.4 +3.9 97 +1 +1 1024.4 990.9 +2.4 +4.8 15
03 19.07 Ю 2 4000 м дождь 10/10 450 м
[Frnb]
+4.6 +4.1 97 +2 +2 1024.3 990.8
06 19.07 З 2 4000 м дождь со снегом 10/10 240 м
[Frnb]
+1.5 +1.2 98 -2 -2 1024.5 990.8 15
09 19.07 З 2 2000 м дождь со снегом 10/10 210 м
[Frnb]
+0.8 +0.5 98 -2 -2 1024.3 990.5
12 19.07 Ю 3 6000 м слабый дождь {снег} 10/10 300 м
[Frnb]
+4.0 +2.8 92 +1 +1 1024.8 991.3 +0.2 +5.4 13
15 19.07 Ю 7 10 км {дождь} 10/10 750 м
[Frnb]
+5.7 +2.5 80 0 0 1026.3 992.8
18 19.07 Ю 5 10 км слабый дождь 10/8 700 м
[Frnb As op]
+6.3 +3.0 79 +2 +2 1026.4 992.8 2

 

Местоположение метеостанции Neuquen (Аргентина): широта -38.95 долгота -68.13 высота над уровнем моря 271 м.

В архиве по умолчанию представлена погода в Neuquen за последнюю неделю. Архивные данные за месяц целиком и за предыдущие месяцы, начиная с января 2011 года, Вы можете получить, выбрав интересующий диапазон дат из раскрывающегося списка и нажав кнопку "Ввод!".


*Определитесь, кто Вы:
робот инопланетянин человек

Внимание! Время в таблицах - всемирное. Для получения местного времени необходимо прибавить поправку, которая в Neuquen равна -3 ч.

Смотрите также архив погоды в соседних городах и на ближайших метеорологических станциях:

Погода в Maquinchao (Аргентина) (261 км)
Погода в San Antonio Oeste (Аргентина) (330 км)
Погода в San Carlos de Bariloche (Аргентина) (356 км)
Погода в Temuco (Чили) (390 км)
Погода в Araucania (Чили) (391 км)
Погода в Malargue (Аргентина) (405 км)
Погода в Santa Rosa (Аргентина) (432 км)
Погода в Valdivia (Чили) (433 км)
Погода в Chillan (Чили) (434 км)
Погода в El Bolson (Аргентина) (442 км)

Пояснения к столбцам:

Ветер - указаны скорость ветра в м/с - средняя за 10 мин, порывы в срок и между сроками (в фигурных скобках) и направление, откуда дует ветер: С - северный, СВ - северо-восточный, В - восточный, ЮВ - юго-восточный, Ю - южный, ЮЗ - юго-западный, З - западный, СЗ - северо-западный.
Видимость - горизонтальная дальность видимости в метрах или километрах. При видимости от 1 до 10 км при отсутствии осадков обычно наблюдается дымка, при ухудшении видимости до 1 км и менее - туман. В сухую погоду видимость может ухудшаться дымом, пылью или мглою.
Явления - указаны атмосферные явления, наблюдавшиеся в срок или в последний час перед сроком; фигурными скобками обозначены явления, наблюдавшиеся между сроками (за 1-3 часа до срока); квадратными скобками обозначены град или гололедные отложения с указанием их диаметра в мм.
Облачность - указаны через наклонную черту общая и нижняя облачность в баллах и высота нижней границы облаков в метрах; квадратными скобками обозначены формы облаков: Ci - перистые, Cs - перисто-слоистые, Cc - перисто-кучевые, Ac - высококучевые, As - высокослоистые, Sc - слоисто-кучевые, Ns - слоисто-дождевые, Cu - кучевые, Cb - кучево-дождевые. Подробнее классификацию облаков см. в Атласе облаков (PDF).
T - Температура воздуха - температура, измеренная на высоте 2 м над землей.
Td - Температура точки росы - температура, при понижении до которой содержащийся в воздухе водяной пар достигнет насыщения.
f - Относительная влажность воздуха - влажноcть воздуха, измеренная на высоте 2 м над землей.
Te - Эффективная температура - температура, которую ощущает одетый по сезону человек в тени. Характеристика душности погоды. При расчете учитывается влияние влажности воздуха и скорости ветра на теплоощущения человека.
Tes - Эффективная температура на солнце - температура, которую ощущает человек, с поправкой на солнечный нагрев. Характеристика знойности погоды. Зависит от высоты солнца над горизонтом, облачности и скорости ветра. Ночью, в пасмурную погоду, а также при ветре 12 м/с и более поправка равна нулю.
P - Атмосферное давление - приведенное к уровню моря атмосферное давление.
Po - Атмосферное давление - измеренное на уровне метеостанции атмосферное давление.
Tmin - Минимальная температура - минимум температуры воздуха на высоте 2 м над землей.
Tmax - Максимальная температура - максимум температуры воздуха на высоте 2 м над землей.
R - Количество осадков - Количество выпавших осадков за период времени, мм. При наведении курсора мыши на число - период времени, за который выпало указанное количество осадков.
R24 - Количество осадков - Количество выпавших осадков за 24 часа, мм.
S - Снежный покров - Высота снежного покрова, см. При наведении курсора мыши на число - состояние снежного покрова и степень покрытия местности в баллах.